Location: Bonnefont
(43.2498°N, 0.3448°E)
Time: 23:41:41
(UTC+00:00)

Daily predictions for brighter satellites

Satellite Brightness Start Highest point End
(mag) Time Altitude Azimuth Time Altitude Azimuth Time Altitude Azimuth
Cosmos 468 Rocket 4.0 16:50:16 10° SSW 16:55:25 87° ESE 17:00:39 10° NNE
Meteor 1-25 Rocket 4.3 16:50:57 10° N 16:56:27 58° ENE 17:02:00 10° SSE
Cosmos 1500 Rocket 3.5 16:53:20 10° N 16:57:47 73° E 17:02:09 10° SSE
Cosmos 2221 3.7 16:58:50 10° SSW 17:02:55 44° WNW 17:07:05 10° N
Cosmos 1898 Rocket 3.5 16:57:49 10° NNW 17:03:05 76° ENE 17:08:16 10° SSE
USA 276 3.4 17:00:21 10° WNW 17:03:19 43° SW 17:06:18 10° SE
CZ-2C R/B 3.9 17:02:57 10° SSE 17:03:43 10° SSE 17:04:29 10° SE
Cosmos 1939 Rocket 3.0 16:59:49 10° SSE 17:03:50 56° ENE 17:07:51 10° N
Cosmos 1602 3.9 17:01:05 10° N 17:04:50 48° ENE 17:08:36 10° SSE
Sich 1 3.5 17:00:57 10° N 17:04:59 39° ENE 17:09:02 10° SSE
ARGOS 4.3 17:01:55 10° ESE 17:05:51 21° ENE 17:09:47 10° NNE
Nadezhda 4 Rocket 4.3 17:00:38 10° N 17:06:58 78° W 17:13:18 10° S
Cosmos 2084 3.9 17:02:48 10° NW 17:07:07 69° SW 17:11:35 10° SSE
Cosmos 1805 Rocket 3.6 17:05:25 10° N 17:09:42 57° E 17:13:57 10° SSE
Cosmos 1833 Rocket 2.8 17:04:18 10° SSW 17:09:55 81° WNW 17:15:35 10° NNE
COSMOS 2406 3.3 17:08:04 10° SSW 17:13:49 85° ESE 17:19:35 10° NNE
CZ-2C R/B 3.6 17:15:27 10° S 17:20:18 59° W 17:25:01 10° NNW
Cosmos 1782 2.8 17:17:48 10° S 17:21:45 62° E 17:25:41 10° NNE
USA 267 3.5 17:16:48 10° NE 17:23:18 69° NW 17:29:47 10° WSW
Cosmos 1092 Rocket 4.0 17:17:39 10° N 17:24:03 85° E 17:30:23 10° S
Cosmos 1428 Rocket 4.4 17:18:38 10° N 17:24:47 75° E 17:30:56 10° SSE
Cosmos 1763 Rocket 4.4 17:22:03 10° SW 17:26:56 47° WNW 17:31:53 10° N
CZ-2C R/B 3.2 17:23:26 10° NNE 17:28:06 33° E 17:32:43 10° SSE
CZ-2D R/B 3.4 17:24:36 10° SSE 17:28:17 47° ENE 17:31:59 10° N
Cosmos 1500 3.1 17:25:51 10° N 17:29:34 61° E 17:33:14 10° SSE
CZ-4C R/B 3.1 17:24:00 10° NNW 17:31:01 53° NE 17:39:12 10° ESE
H-2A R/B 2.1 17:26:32 10° SSE 17:31:31 52° ENE 17:36:25 10° N
CZ-4B R/B 3.5 17:27:58 10° SE 17:33:01 41° ENE 17:38:01 10° N
Cosmos 841 Rocket 3.4 17:29:04 10° SSW 17:34:14 88° ESE 17:39:25 10° NNE
PAYLOAD B 4.2 17:29:16 10° SSE 17:34:47 63° ENE 17:40:19 10° N
SMAP 3.5 17:36:30 10° S 17:41:06 65° W 17:45:44 10° NNW
Cosmos 1937 Rocket 3.9 17:36:06 10° NNW 17:41:24 70° WSW 17:46:40 10° S
Cosmos 2142 Rocket 4.4 17:37:22 10° S 17:43:25 64° E 17:49:34 10° NNE
Lacrosse 5 rocket 2.4 17:40:38 10° NNW 17:43:56 25° NNE 17:44:49 23° NE
Cosmos 921 Rocket 3.9 17:40:54 10° SSE 17:44:25 27° E 17:45:21 24° ENE
COSMO-SKYMED 1 2.9 17:41:39 12° NNE 17:45:25 43° E 17:49:33 10° S
Cosmos 1125 Rocket 4.5 17:41:37 10° N 17:45:57 25° ENE 17:47:31 22° E
COSMOS 2455 3.0 17:40:35 10° SW 17:46:35 76° WNW 17:52:29 11° NNE
Cosmos 2279 Rocket 3.9 17:42:41 10° S 17:48:50 67° E 17:55:00 10° NNE
Cosmos 372 Rocket 4.0 17:44:04 10° NNW 17:49:21 88° ENE 17:54:36 10° SSE
ISS -3.8 17:48:17 10° NW 17:51:41 69° NNE 17:53:03 33° ESE
Cosmos 1633 Rocket 3.0 17:47:47 10° N 17:52:07 57° E 17:56:25 10° SSE
Cosmos 2360 Rocket 3.9 17:49:55 10° N 17:52:12 15° NNE 17:52:12 15° NNE
Cosmos 44 Rocket 3.8 17:49:38 10° NNW 17:54:14 37° NE 17:56:04 27° E
Cosmos 2266 Rocket 4.4 17:48:58 10° N 17:54:55 39° ENE 18:00:51 10° SE
USA 234 3.2 17:49:22 10° SE 17:55:56 90° ENE 18:02:31 10° NW
SL-24 R/B - RUBIN 2 3.6 17:53:28 10° NW 17:57:57 77° WSW 18:02:14 10° SSE
Meteor 1-11 Rocket 4.3 17:53:33 10° N 17:58:37 33° ENE 18:03:44 10° SE
Cosmos 1666 2.4 17:55:07 10° N 17:58:51 75° E 18:02:32 10° SSE
Cosmos 1151 Rocket 2.9 17:55:29 10° S 17:59:48 88° E 18:04:11 10° N
PSLV R/B 4.3 17:56:47 10° S 18:00:24 58° W 18:04:06 10° NNW
CZ-4 R/B 4.4 18:01:55 10° SSE 18:05:57 57° ENE 18:10:00 10° N
USA 305 4.3 18:05:05 10° NW 18:08:32 23° NNE 18:08:40 23° NNE
Cosmos 1900 4.2 18:04:39 10° SSW 18:09:30 78° ESE 18:11:47 32° NE
SKYMED 3 4.4 18:06:03 15° NNE 18:09:35 81° E 18:13:55 10° S
X-37B 2.7 18:08:49 10° SSW 18:10:00 16° S 18:10:00 16° S
Okean O Rocket 1.5 18:07:21 10° SSE 18:11:47 71° ENE 18:16:14 10° N
Feng Yun 1-1 Rocket 4.5 18:07:20 10° SE 18:13:01 50° ENE 18:18:40 10° N
Meteor 2-15 4.4 18:07:31 10° S 18:13:32 65° E 18:19:34 10° NNE
Cosmos 2322 Rocket 3.0 18:09:17 10° N 18:13:54 30° NE 18:13:54 30° NE
Landsat 5 3.2 18:16:56 47° NE 18:17:59 68° ESE 18:21:54 10° S
Cosmos 1666 Rocket 4.1 18:14:29 10° NNW 18:18:52 59° W 18:23:10 10° S
Cosmos 1980 Rocket 2.9 18:14:10 10° NNW 18:19:42 56° WSW 18:25:09 10° S
Cosmos 1812 3.9 18:16:25 10° SSW 18:20:06 43° WNW 18:23:48 10° N
Cosmos 1328 Rocket 3.6 18:16:05 10° S 18:20:31 79° W 18:24:02 16° N
SJ-11-01 4.2 18:16:55 10° SSE 18:21:40 89° W 18:26:26 10° NNW
Cosmos 1470 Rocket 3.4 18:17:47 10° N 18:22:15 70° E 18:26:42 10° SSE
APEX 3.8 18:19:08 10° S 18:22:09 39° SSE 18:22:09 39° SSE
SL-16 R/B 2.2 18:27:22 10° NNW 18:32:56 54° ENE 18:33:20 53° ENE
SKYMED 2 4.2 18:30:16 17° N 18:33:30 56° WNW 18:37:44 10° SSW
Cosmos 2082 Rocket 3.4 18:28:54 10° SW 18:34:10 39° WNW 18:38:46 13° N
ATLAS CENTAUR R/B 3.8 18:29:19 10° W 18:36:00 28° NW 18:37:45 22° N
Cosmos 2298 Rocket 3.9 18:31:06 10° NNW 18:36:26 75° ENE 18:38:49 34° SSE
Cosmos 1655 Rocket 3.9 18:30:07 10° N 18:36:33 83° E 18:42:54 10° S
DMSP B5D2-2 4.0 18:42:37 61° ESE 18:42:37 61° ESE 18:47:27 10° S
CZ-2C R/B 3.1 18:39:15 10° SW 18:42:01 21° S 18:42:01 21° S
ARGOS 3.7 18:40:20 10° S 18:45:40 58° W 18:51:01 10° NNW
Cosmos 2333 Rocket 4.3 18:41:56 10° N 18:42:44 13° N 18:42:44 13° N
Cosmos 1818 3.5 18:42:39 10° NW 18:48:09 82° WSW 18:49:43 48° SSE
NOAA 15 4.4 18:43:25 10° SSE 18:48:42 83° ENE 18:54:00 10° NNW
GEOS 3 Rocket 4.0 18:54:52 50° N 18:54:52 50° N 18:58:56 10° NNW
Meteor 1-27 Rocket 3.6 18:56:27 10° S 19:01:42 82° SSW 19:01:42 82° SSW
Cosmos 1515 Rocket 4.4 18:59:45 10° SSW 19:04:03 49° WNW 19:04:03 49° WNW
USA 267 4.4 19:03:55 28° NNE 19:05:40 32° NNW 19:11:18 10° WNW
CZ-2C R/B 4.2 19:03:47 10° N 19:08:20 32° WNW 19:12:51 10° SW
Cosmos 1867 4.2 19:04:55 10° SSW 19:08:41 46° SSW 19:08:41 46° SSW
CZ-4C R/B 4.0 19:12:37 10° NW 19:19:44 45° WSW 19:27:43 10° S
Lacrosse 5 rocket 3.8 19:19:18 10° NW 19:20:27 18° WNW 19:20:27 18° WNW
ISS -0.2 19:25:56 10° W 19:26:04 11° W 19:26:04 11° W
Cosmos 1125 Rocket 4.5 19:23:14 10° NNW 19:27:55 44° W 19:27:55 44° W
Cosmos 2360 Rocket 4.2 19:32:24 10° NNW 19:33:59 19° NNW 19:33:59 19° NNW
Cosmos 2322 Rocket 4.0 19:53:08 10° NW 19:55:46 26° NW 19:55:46 26° NW
SL-16 R/B 4.4 20:12:17 10° NW 20:15:18 21° W 20:15:18 21° W
